Regional Weather Roundup
Issued by NWS

Home | Current Version | Previous Version | Graphics & Text | Print | Product List | Glossary On
Versions: 1 2 3 4 5 6 7 8 9 10 11 12 13 14 15 16 17 18 19 20 21 22 23 24 25 26 27 28 29 30 31 32 33 34 35 36 37 38 39 40 41 42 43 44 45 46 47 48 49 50
003
ASUS43 KLMK 230502
RWRKY
KENTUCKY REGIONAL WEATHER ROUNDUP
NATIONAL WEATHER SERVICE LOUISVILLE KY
100 AM EDT FRI JUN 23 2017

NOTE "FAIR" INDICATES FEW OR NO CLOUDS BELOW 12,000 FEET
WITH NO SIGNIFICANT WEATHER AND/OR OBSTRUCTIONS TO VISIBILITY.

KYZ001>023-026-027-061>063-070>075-230600-
WESTERN AND SOUTH CENTRAL KENTUCKY

CITY           SKY/WX    TMP DP  RH WIND       PRES   REMARKS
PADUCAH        CLOUDY    77  73  87 SE5       29.78F
HENDERSON      CLOUDY    76  74  93 S9        29.80F
OWENSBORO      CLOUDY    76  73  91 S9        29.82F
HOPKINSVILLE   CLOUDY    77  73  87 S10       29.84F
BOWLING GREEN  CLOUDY    78  74  87 S13       29.87F
GLASGOW        NOT AVBL
$$

KYZ024-025-028>034-038-045-046-053-230600-
NORTH CENTRAL KENTUCKY

CITY           SKY/WX    TMP DP  RH WIND       PRES   REMARKS
LOUISVILLE/SDF CLOUDY    75  72  90 S7        29.85F
LOUISVILLE/LOU CLOUDY    74  74 100 S6        29.86F
FORT KNOX      CLOUDY    74  74 100 S9        29.85S
$$

KYZ035>037-039>044-047>052-055>060-089>105-230600-
NORTHEAST KENTUCKY

CITY           SKY/WX    TMP DP  RH WIND       PRES   REMARKS
LEXINGTON      MOCLDY    72  69  90 S9        29.90F
COVINGTON      CLOUDY    71  70  96 S9        29.86F
FRANKFORT      MOCLDY    71  69  93 SE3       29.88F
$$

KYZ054-064>069-076>088-106>120-230600-
SOUTHEAST KENTUCKY

CITY           SKY/WX    TMP DP  RH WIND       PRES   REMARKS
JACKSON        CLOUDY    70  67  90 CALM      29.96F
LONDON         MOCLDY    72  68  87 S9        29.96F
SOMERSET       PTCLDY    70  70 100 S3        29.95F
MIDDLESBORO    HVY RAIN  72  71  97 S6        30.00F
MONTICELLO     MOCLDY    75  71  87 VRB6      29.95F
$$





USA.gov is the U.S. government's official web portal to all federal, state and local government web resources and services.